Location: Recife
(8.0585°S, 34.8848°W)
Time: 20:34:29
(UTC-03:00)

Explorer 11/Cluster Stage 4 - Pass Details

Date: 14 April 2026
Orbit: 463 x 1174 km, 28.8° (Epoch: 16 May)

Event Time Altitude Azimuth Distance (km) Brightness Sun altitude
Rises 20:04:43 0° 299° (WNW) 3,280 10.5 -41.8°
Reaches altitude 10° 20:07:27 10° 299° (WNW) 2,227 9.4 -42.5°
Enters shadow 20:07:37 11° 299° (WNW) 2,166 9.4 -42.6°
Maximum altitude 20:12:37 86° 209° (SSW) 631 - -43.8°
Drops below altitude 10° 20:16:51 10° 120° (ESE) 1,831 - -44.8°
Sets 20:18:55 0° 120° (ESE) 2,650 - -45.3°
